Location: Peterborough
(44.3091°N, 78.3197°W)
Time: 04:04:52
(UTC-04:00)

S-56A Canister/Altair - Pass Details

Date: 24 March 2023
Orbit: 639 x 2492 km, 38.9° (Epoch: 08 June)

Event Time Altitude Azimuth Distance (km) Brightness Sun altitude
Rises 01:04:38 0° 279° (W) 5,975 12.2 -44.2°
Reaches altitude 10° 01:08:29 10° 276° (W) 5,072 11.7 -44.3°
Enters shadow 01:15:59 35° 261° (W) 3,500 10.6 -44.4°
Maximum altitude 01:22:58 57° 204° (SSW) 2,758 - -44.4°
Drops below altitude 10° 01:35:53 10° 130° (SE) 4,566 - -44.2°
Sets 01:39:10 0° 126° (SE) 5,363 - -44.2°
